Belmar-Farmingdale, NJ

5:15 PM EDT on June 28, 2017 (GMT -0400)
Allaire

Weather History for KBLM - October, 2014

Change the Weather History Date:

Wednesday, October 8, 2014

  Actual Average Record
Temperature  
Mean Temperature 66 °F -  
Max Temperature 73 °F 64 °F 75 °F (2011)
Min Temperature 57 °F 48 °F 35 °F (1999)
Cooling Degree Days 1    
Growing Degree Days 16 (Base 50)    
Moisture  
Dew Point 51 °F    
Average Humidity 61    
Maximum Humidity 88    
Minimum Humidity 38    
Precipitation  
Precipitation 0.02 in - - ()
Sea Level Pressure  
Sea Level Pressure 29.87 in    
Wind  
Wind Speed 10 mph (WSW)    
Max Wind Speed 20 mph    
Max Gust Speed 28 mph    
Visibility 10 miles    
Events      
Averages and records for this station are not official NWS values.
T = Trace of Precipitation, MM = Missing Value Source: NWS Daily Summary

Daily Weather History Graph

Daily Weather History Graph

Search for Another Location

Airport or City:

Trip Planner

Search our weather history database for the weather conditions in past years. The results will help you decide how hot, cold, wet, or windy it might be!

Date:

Astronomy

Oct. 08, 2014 Rise Set
Actual Time 6:59 AM EDT 6:27 PM EDT
Civil Twilight 6:32 AM EDT 6:54 PM EDT
Nautical Twilight 6:01 AM EDT 7:26 PM EDT
Astronomical Twilight 5:29 AM EDT 7:57 PM EDT
Moon 6:40 PM EDT (10/8) 7:03 AM EDT (10/8)
Length of Visible Light 12h 22m
Length of Day
11h 27m
Full, 100% of the Moon is Illuminated
Oct 8
Full
Oct 15
Last Quarter
Oct 23
New
Oct 30
First Quarter
Nov 6
Full

Hourly Weather History & Observations

Time (EDT) Temp. Dew Point Humidity Pressure Visibility Wind Dir Wind Speed Gust Speed Precip Events Conditions
12:15 AM 64.4 °F 57.2 °F 77% 29.92 in 10.0 mi SSE 6.9 mph - 0.01 in   Overcast
12:35 AM 64.4 °F 57.2 °F 77% 29.91 in 10.0 mi South 6.9 mph - 0.01 in   Mostly Cloudy
12:55 AM 64.4 °F 57.2 °F 77% 29.89 in 10.0 mi South 8.1 mph - 0.01 in   Mostly Cloudy
1:15 AM 64.4 °F 59.0 °F 83% 29.89 in 10.0 mi South 8.1 mph 16.1 mph N/A   Overcast
1:35 AM 64.4 °F 60.8 °F 88% 29.88 in 10.0 mi South 17.3 mph 25.3 mph 0.01 in   Mostly Cloudy
1:55 AM 66.2 °F 59.0 °F 78% 29.86 in 10.0 mi South 13.8 mph 21.9 mph 0.01 in   Overcast
2:15 AM 66.2 °F 59.0 °F 78% 29.86 in 10.0 mi South 15.0 mph 21.9 mph N/A   Mostly Cloudy
2:35 AM 66.2 °F 59.0 °F 78% 29.85 in 10.0 mi SSW 9.2 mph 24.2 mph N/A   Mostly Cloudy
2:55 AM 64.4 °F 57.2 °F 77% 29.84 in 10.0 mi SSW 10.4 mph 17.3 mph N/A   Overcast
3:15 AM 64.4 °F 57.2 °F 77% 29.83 in 10.0 mi SSW 11.5 mph 16.1 mph N/A   Overcast
3:35 AM 64.4 °F 57.2 °F 77% 29.83 in 10.0 mi SSW 10.4 mph 18.4 mph N/A   Mostly Cloudy
3:55 AM 64.4 °F 57.2 °F 77% 29.83 in 10.0 mi SW 9.2 mph 17.3 mph N/A   Mostly Cloudy
4:15 AM 64.4 °F 57.2 °F 77% 29.82 in 10.0 mi SW 6.9 mph - N/A   Mostly Cloudy
4:35 AM 64.4 °F 57.2 °F 77% 29.82 in 10.0 mi SW 8.1 mph - N/A   Overcast
4:55 AM 64.4 °F 57.2 °F 77% 29.83 in 10.0 mi WSW 9.2 mph - N/A   Overcast
5:15 AM 64.4 °F 57.2 °F 77% 29.82 in 10.0 mi WSW 8.1 mph 17.3 mph N/A   Mostly Cloudy
5:35 AM 62.6 °F 57.2 °F 82% 29.83 in 10.0 mi SW 11.5 mph - N/A   Scattered Clouds
5:55 AM 62.6 °F 57.2 °F 82% 29.83 in 10.0 mi WSW 9.2 mph - N/A   Mostly Cloudy
6:15 AM 62.6 °F 55.4 °F 77% 29.83 in 10.0 mi SW 10.4 mph - N/A   Mostly Cloudy
6:35 AM 62.6 °F 55.4 °F 77% 29.84 in 10.0 mi WSW 8.1 mph - N/A   Mostly Cloudy
6:55 AM 62.6 °F 55.4 °F 77% 29.84 in 10.0 mi WSW 8.1 mph - N/A   Overcast
7:15 AM 62.6 °F 55.4 °F 77% 29.85 in 10.0 mi WSW 6.9 mph - N/A   Scattered Clouds
7:35 AM 62.6 °F 55.4 °F 77% 29.85 in 10.0 mi SW 6.9 mph - N/A   Clear
7:55 AM 62.6 °F 55.4 °F 77% 29.86 in 10.0 mi SW 8.1 mph - N/A   Clear
8:15 AM 62.6 °F 55.4 °F 77% 29.86 in 10.0 mi SW 8.1 mph - N/A   Partly Cloudy
8:35 AM 62.6 °F 55.4 °F 77% 29.87 in 10.0 mi WSW 9.2 mph - N/A   Partly Cloudy
8:55 AM 62.6 °F 55.4 °F 77% 29.87 in 10.0 mi West 11.5 mph - N/A   Partly Cloudy
9:15 AM 64.4 °F 55.4 °F 73% 29.87 in 10.0 mi West 9.2 mph 20.7 mph N/A   Partly Cloudy
9:35 AM 64.4 °F 53.6 °F 68% 29.88 in 10.0 mi West 12.7 mph 18.4 mph N/A   Partly Cloudy
9:55 AM 66.2 °F 53.6 °F 64% 29.87 in 10.0 mi West 17.3 mph 24.2 mph N/A   Clear
10:15 AM 66.2 °F 51.8 °F 60% 29.88 in 10.0 mi WNW 17.3 mph 20.7 mph N/A   Clear
10:35 AM 68.0 °F 51.8 °F 56% 29.88 in 10.0 mi West 15.0 mph 21.9 mph N/A   Clear
10:55 AM 68.0 °F 51.8 °F 56% 29.88 in 10.0 mi WNW 15.0 mph - N/A   Partly Cloudy
11:15 AM 69.8 °F 51.8 °F 53% 29.87 in 10.0 mi WNW 15.0 mph 24.2 mph N/A   Partly Cloudy
11:35 AM 69.8 °F 50.0 °F 49% 29.87 in 10.0 mi West 11.5 mph 18.4 mph N/A   Partly Cloudy
11:55 AM 71.6 °F 50.0 °F 46% 29.87 in 10.0 mi WNW 13.8 mph 20.7 mph N/A   Partly Cloudy
12:15 PM 71.6 °F 50.0 °F 46% 29.87 in 10.0 mi WNW 15.0 mph 21.9 mph N/A   Clear
12:35 PM 71.6 °F 48.2 °F 43% 29.87 in 10.0 mi West 15.0 mph 19.6 mph N/A   Clear
12:55 PM 71.6 °F 48.2 °F 43% 29.85 in 10.0 mi West 19.6 mph 27.6 mph N/A   Partly Cloudy
1:15 PM 71.6 °F 48.2 °F 43% 29.85 in 10.0 mi West 19.6 mph 26.5 mph N/A   Clear
1:35 PM 71.6 °F 48.2 °F 43% 29.84 in 10.0 mi West 17.3 mph 23.0 mph N/A   Clear
1:55 PM 73.4 °F 46.4 °F 38% 29.83 in 10.0 mi West 16.1 mph 20.7 mph N/A   Clear
2:15 PM 73.4 °F 48.2 °F 41% 29.83 in 10.0 mi West 16.1 mph 23.0 mph N/A   Partly Cloudy
2:55 PM 73.4 °F 46.4 °F 38% 29.83 in 10.0 mi WSW 13.8 mph 23.0 mph N/A   Partly Cloudy
3:15 PM 73.4 °F 46.4 °F 38% 29.83 in 10.0 mi West 17.3 mph 26.5 mph N/A   Clear
3:35 PM 73.4 °F 46.4 °F 38% 29.83 in 10.0 mi West 17.3 mph 23.0 mph N/A   Scattered Clouds
3:55 PM 71.6 °F 46.4 °F 41% 29.83 in 10.0 mi West 11.5 mph 23.0 mph N/A   Scattered Clouds
4:15 PM 73.4 °F 46.4 °F 38% 29.83 in 10.0 mi West 15.0 mph 23.0 mph N/A   Clear
4:35 PM 71.6 °F 46.4 °F 41% 29.83 in 10.0 mi West 15.0 mph 19.6 mph N/A   Clear
4:55 PM 71.6 °F 46.4 °F 41% 29.83 in 10.0 mi West 11.5 mph 17.3 mph N/A   Clear
5:15 PM 71.6 °F 46.4 °F 41% 29.84 in 10.0 mi West 11.5 mph - N/A   Clear
5:35 PM 69.8 °F 46.4 °F 43% 29.84 in 10.0 mi West 8.1 mph - N/A   Clear
5:55 PM 69.8 °F 46.4 °F 43% 29.84 in 10.0 mi West 5.8 mph - N/A   Clear
6:15 PM 68.0 °F 46.4 °F 46% 29.85 in 10.0 mi WSW 5.8 mph - N/A   Clear
6:35 PM 66.2 °F 46.4 °F 49% 29.85 in 10.0 mi West 5.8 mph - N/A   Clear
6:55 PM 64.4 °F 46.4 °F 52% 29.86 in 10.0 mi WSW 6.9 mph - N/A   Clear
7:15 PM 64.4 °F 46.4 °F 52% 29.87 in 10.0 mi SW 4.6 mph - N/A   Clear
7:35 PM 64.4 °F 46.4 °F 52% 29.88 in 10.0 mi SW 5.8 mph - N/A   Clear
7:55 PM 64.4 °F 46.4 °F 52% 29.89 in 10.0 mi SW 5.8 mph - N/A   Clear
8:15 PM 62.6 °F 46.4 °F 55% 29.89 in 10.0 mi WSW 5.8 mph - N/A   Partly Cloudy
8:35 PM 60.8 °F 46.4 °F 59% 29.90 in 10.0 mi West 5.8 mph - N/A   Partly Cloudy
8:55 PM 60.8 °F 46.4 °F 59% 29.90 in 10.0 mi West 4.6 mph - N/A   Clear
9:15 PM 59.0 °F 46.4 °F 63% 29.91 in 10.0 mi SSW 6.9 mph - N/A   Scattered Clouds
9:35 PM 60.8 °F 46.4 °F 59% 29.93 in 10.0 mi West 6.9 mph - N/A   Mostly Cloudy
9:55 PM 60.8 °F 44.6 °F 55% 29.94 in 10.0 mi West 6.9 mph - N/A   Mostly Cloudy
10:15 PM 62.6 °F 44.6 °F 52% 29.95 in 10.0 mi WNW 9.2 mph - N/A   Overcast
10:35 PM 62.6 °F 44.6 °F 52% 29.96 in 10.0 mi WNW 9.2 mph - N/A   Mostly Cloudy
10:55 PM 60.8 °F 42.8 °F 52% 29.96 in 10.0 mi West 6.9 mph - N/A   Clear
11:15 PM 60.8 °F 42.8 °F 52% 29.97 in 10.0 mi West 8.1 mph - N/A   Clear
11:35 PM 59.0 °F 42.8 °F 55% 29.97 in 10.0 mi West 8.1 mph - N/A   Clear
11:55 PM 57.2 °F 42.8 °F 59% 29.97 in 10.0 mi West 3.5 mph - N/A   Clear